time,lat,lon
2007-07-25T13:56:44 ,       9.99327 ,     -84.2105
2007-07-25T13:56:45 ,       9.99327 ,     -84.2104
2007-07-25T13:56:46 ,       9.99344 ,     -84.2100
2007-07-25T13:56:47 ,       9.99344 ,     -84.2099
2007-07-25T13:56:48 ,       9.99361 ,     -84.2095
2007-07-25T13:56:49 ,       9.99361 ,     -84.2092
2007-07-25T13:56:50 ,       9.99378 ,     -84.2088
2007-07-25T13:56:51 ,       9.99395 ,     -84.2085
2007-07-25T13:56:52 ,       9.99413 ,     -84.2081
2007-07-25T13:56:53 ,       9.99430 ,     -84.2076
2007-07-25T13:56:54 ,       9.99447 ,     -84.2073
2007-07-25T13:56:55 ,       9.99464 ,     -84.2068
2007-07-25T13:56:56 ,       9.99481 ,     -84.2063
2007-07-25T13:56:57 ,       9.99481 ,     -84.2057
2007-07-25T13:56:58 ,       9.99498 ,     -84.2052
2007-07-25T13:56:59 ,       9.99516 ,     -84.2047
2007-07-25T13:57:00 ,       9.99533 ,     -84.2042
2007-07-25T13:57:01 ,       9.99550 ,     -84.2037
2007-07-25T13:57:02 ,       9.99567 ,     -84.2032
2007-07-25T13:57:03 ,       9.99584 ,     -84.2026
2007-07-25T13:57:04 ,       9.99601 ,     -84.2021
2007-07-25T13:57:05 ,       9.99619 ,     -84.2016
2007-07-25T13:57:06 ,       9.99619 ,     -84.2011
2007-07-25T13:57:07 ,       9.99636 ,     -84.2006
2007-07-25T13:57:08 ,       9.99653 ,     -84.2001
2007-07-25T13:57:09 ,       9.99670 ,     -84.1996
2007-07-25T13:57:10 ,       9.99687 ,     -84.1991
2007-07-25T13:57:11 ,       9.99687 ,     -84.1985
2007-07-25T13:57:12 ,       9.99704 ,     -84.1980
2007-07-25T13:57:13 ,       9.99722 ,     -84.1975
2007-07-25T13:57:14 ,       9.99739 ,     -84.1970
2007-07-25T13:57:15 ,       9.99756 ,     -84.1965
2007-07-25T13:57:16 ,       9.99756 ,     -84.1960
2007-07-25T13:57:17 ,       9.99773 ,     -84.1954
2007-07-25T13:57:18 ,       9.99790 ,     -84.1949
2007-07-25T13:57:19 ,       9.99807 ,     -84.1944
2007-07-25T13:57:20 ,       9.99825 ,     -84.1939
2007-07-25T13:57:21 ,       9.99842 ,     -84.1934
2007-07-25T13:57:22 ,       9.99842 ,     -84.1929
2007-07-25T13:57:23 ,       9.99859 ,     -84.1923
2007-07-25T13:57:24 ,       9.99876 ,     -84.1918
2007-07-25T13:57:25 ,       9.99893 ,     -84.1913
2007-07-25T13:57:26 ,       9.99910 ,     -84.1908
2007-07-25T13:57:27 ,       9.99928 ,     -84.1903
2007-07-25T13:57:28 ,       9.99945 ,     -84.1898
2007-07-25T13:57:29 ,       9.99962 ,     -84.1893
2007-07-25T13:57:30 ,       9.99979 ,     -84.1888
2007-07-25T13:57:31 ,       9.99996 ,     -84.1882
2007-07-25T13:57:32 ,       9.99996 ,     -84.1877
2007-07-25T13:57:33 ,       10.0001 ,     -84.1872
2007-07-25T13:57:34 ,       10.0001 ,     -84.1867
2007-07-25T13:57:35 ,       10.0003 ,     -84.1862
2007-07-25T13:57:36 ,       10.0003 ,     -84.1857
2007-07-25T13:57:37 ,       10.0003 ,     -84.1850
2007-07-25T13:57:38 ,       10.0003 ,     -84.1845
2007-07-25T13:57:39 ,       10.0003 ,     -84.1839
2007-07-25T13:57:40 ,       10.0003 ,     -84.1834
2007-07-25T13:57:41 ,       10.0003 ,     -84.1827
2007-07-25T13:57:42 ,       10.0001 ,     -84.1822
2007-07-25T13:57:43 ,       9.99996 ,     -84.1817
2007-07-25T13:57:44 ,       9.99996 ,     -84.1812
2007-07-25T13:57:45 ,       9.99979 ,     -84.1805
2007-07-25T13:57:46 ,       9.99945 ,     -84.1800
2007-07-25T13:57:47 ,       9.99928 ,     -84.1795
2007-07-25T13:57:48 ,       9.99893 ,     -84.1790
2007-07-25T13:57:49 ,       9.99876 ,     -84.1785
2007-07-25T13:57:50 ,       9.99842 ,     -84.1779
2007-07-25T13:57:51 ,       9.99807 ,     -84.1774
2007-07-25T13:57:52 ,       9.99756 ,     -84.1769
2007-07-25T13:57:53 ,       9.99722 ,     -84.1764
2007-07-25T13:57:54 ,       9.99687 ,     -84.1760
2007-07-25T13:57:55 ,       9.99636 ,     -84.1755
2007-07-25T13:57:56 ,       9.99584 ,     -84.1750
2007-07-25T13:57:57 ,       9.99533 ,     -84.1747
2007-07-25T13:57:58 ,       9.99481 ,     -84.1743
2007-07-25T13:57:59 ,       9.99430 ,     -84.1740
2007-07-25T13:58:00 ,       9.99378 ,     -84.1736
2007-07-25T13:58:01 ,       9.99310 ,     -84.1733
2007-07-25T13:58:02 ,       9.99258 ,     -84.1730
2007-07-25T13:58:03 ,       9.99189 ,     -84.1728
2007-07-25T13:58:04 ,       9.99121 ,     -84.1724
2007-07-25T13:58:05 ,       9.99052 ,     -84.1723
2007-07-25T13:58:06 ,       9.98983 ,     -84.1721
2007-07-25T13:58:07 ,       9.98915 ,     -84.1719
2007-07-25T13:58:08 ,       9.98846 ,     -84.1719
2007-07-25T13:58:09 ,       9.98777 ,     -84.1717
2007-07-25T13:58:10 ,       9.98709 ,     -84.1717
2007-07-25T13:58:11 ,       9.98640 ,     -84.1717
2007-07-25T13:58:12 ,       9.98571 ,     -84.1717
2007-07-25T13:58:13 ,       9.98503 ,     -84.1717
2007-07-25T13:58:14 ,       9.98434 ,     -84.1717
2007-07-25T13:58:15 ,       9.98348 ,     -84.1719
2007-07-25T13:58:16 ,       9.98280 ,     -84.1721
2007-07-25T13:58:17 ,       9.98211 ,     -84.1723
2007-07-25T13:58:18 ,       9.98142 ,     -84.1724
2007-07-25T13:58:19 ,       9.98056 ,     -84.1728
2007-07-25T13:58:20 ,       9.97988 ,     -84.1731
2007-07-25T13:58:21 ,       9.97919 ,     -84.1733
2007-07-25T13:58:22 ,       9.97850 ,     -84.1738
2007-07-25T13:58:23 ,       9.97782 ,     -84.1742
2007-07-25T13:58:24 ,       9.97713 ,     -84.1747
2007-07-25T13:58:25 ,       9.97644 ,     -84.1750
2007-07-25T13:58:26 ,       9.97593 ,     -84.1755
2007-07-25T13:58:27 ,       9.97524 ,     -84.1762
2007-07-25T13:58:28 ,       9.97473 ,     -84.1767
2007-07-25T13:58:29 ,       9.97421 ,     -84.1772
2007-07-25T13:58:30 ,       9.97370 ,     -84.1779
2007-07-25T13:58:31 ,       9.97318 ,     -84.1786
2007-07-25T13:58:32 ,       9.97267 ,     -84.1793
2007-07-25T13:58:33 ,       9.97232 ,     -84.1800
2007-07-25T13:58:34 ,       9.97181 ,     -84.1807
2007-07-25T13:58:35 ,       9.97147 ,     -84.1814
2007-07-25T13:58:36 ,       9.97112 ,     -84.1822
2007-07-25T13:58:37 ,       9.97078 ,     -84.1829
2007-07-25T13:58:38 ,       9.97061 ,     -84.1838
2007-07-25T13:58:39 ,       9.97026 ,     -84.1845
2007-07-25T13:58:40 ,       9.97009 ,     -84.1853
2007-07-25T13:58:41 ,       9.96992 ,     -84.1862
2007-07-25T13:58:42 ,       9.96975 ,     -84.1870
2007-07-25T13:58:43 ,       9.96975 ,     -84.1877
2007-07-25T13:58:44 ,       9.96958 ,     -84.1886
2007-07-25T13:58:45 ,       9.96958 ,     -84.1894
2007-07-25T13:58:46 ,       9.96958 ,     -84.1903
2007-07-25T13:58:47 ,       9.96975 ,     -84.1911
2007-07-25T13:58:48 ,       9.96992 ,     -84.1920
2007-07-25T13:58:49 ,       9.96992 ,     -84.1927
2007-07-25T13:58:50 ,       9.97009 ,     -84.1936
2007-07-25T13:58:51 ,       9.97044 ,     -84.1944
2007-07-25T13:58:52 ,       9.97061 ,     -84.1953
2007-07-25T13:58:53 ,       9.97095 ,     -84.1960
2007-07-25T13:58:54 ,       9.97129 ,     -84.1968
2007-07-25T13:58:55 ,       9.97164 ,     -84.1975
2007-07-25T13:58:56 ,       9.97198 ,     -84.1984
2007-07-25T13:58:57 ,       9.97250 ,     -84.1991
2007-07-25T13:58:58 ,       9.97284 ,     -84.1997
2007-07-25T13:58:59 ,       9.97335 ,     -84.2006
2007-07-25T13:59:00 ,       9.97387 ,     -84.2013
2007-07-25T13:59:01 ,       9.97438 ,     -84.2020
2007-07-25T13:59:02 ,       9.97490 ,     -84.2025
2007-07-25T13:59:03 ,       9.97559 ,     -84.2032
2007-07-25T13:59:04 ,       9.97610 ,     -84.2039
2007-07-25T13:59:05 ,       9.97679 ,     -84.2044
2007-07-25T13:59:06 ,       9.97730 ,     -84.2049
2007-07-25T13:59:07 ,       9.97799 ,     -84.2054
2007-07-25T13:59:08 ,       9.97868 ,     -84.2059
2007-07-25T13:59:09 ,       9.97936 ,     -84.2064
2007-07-25T13:59:10 ,       9.98005 ,     -84.2069
2007-07-25T13:59:11 ,       9.98091 ,     -84.2073
2007-07-25T13:59:12 ,       9.98159 ,     -84.2076
2007-07-25T13:59:13 ,       9.98228 ,     -84.2080
2007-07-25T13:59:14 ,       9.98314 ,     -84.2083
2007-07-25T13:59:15 ,       9.98383 ,     -84.2087
2007-07-25T13:59:16 ,       9.98468 ,     -84.2088
2007-07-25T13:59:17 ,       9.98554 ,     -84.2090
2007-07-25T13:59:18 ,       9.98623 ,     -84.2092
2007-07-25T13:59:19 ,       9.98709 ,     -84.2094
2007-07-25T13:59:20 ,       9.98795 ,     -84.2095
2007-07-25T13:59:21 ,       9.98863 ,     -84.2095
2007-07-25T13:59:22 ,       9.98949 ,     -84.2095
2007-07-25T13:59:23 ,       9.99035 ,     -84.2095
2007-07-25T13:59:24 ,       9.99121 ,     -84.2095
2007-07-25T13:59:25 ,       9.99189 ,     -84.2095
2007-07-25T13:59:26 ,       9.99275 ,     -84.2094
2007-07-25T13:59:27 ,       9.99344 ,     -84.2092
2007-07-25T13:59:28 ,       9.99430 ,     -84.2092
2007-07-25T13:59:29 ,       9.99516 ,     -84.2088
2007-07-25T13:59:30 ,       9.99584 ,     -84.2087
2007-07-25T13:59:31 ,       9.99670 ,     -84.2085
2007-07-25T13:59:32 ,       9.99739 ,     -84.2081
2007-07-25T13:59:33 ,       9.99825 ,     -84.2078
2007-07-25T13:59:34 ,       9.99893 ,     -84.2075
2007-07-25T13:59:35 ,       9.99962 ,     -84.2071
2007-07-25T13:59:36 ,       10.0005 ,     -84.2066
2007-07-25T13:59:37 ,       10.0012 ,     -84.2063
2007-07-25T13:59:38 ,       10.0019 ,     -84.2057
2007-07-25T13:59:39 ,       10.0027 ,     -84.2054
2007-07-25T13:59:40 ,       10.0034 ,     -84.2049
2007-07-25T13:59:41 ,       10.0041 ,     -84.2045
2007-07-25T13:59:42 ,       10.0049 ,     -84.2040
2007-07-25T13:59:43 ,       10.0056 ,     -84.2035
2007-07-25T13:59:44 ,       10.0065 ,     -84.2032
2007-07-25T13:59:45 ,       10.0072 ,     -84.2026
2007-07-25T13:59:46 ,       10.0080 ,     -84.2021
2007-07-25T13:59:47 ,       10.0087 ,     -84.2016
2007-07-25T13:59:48 ,       10.0096 ,     -84.2013
2007-07-25T13:59:49 ,       10.0103 ,     -84.2008
2007-07-25T13:59:50 ,       10.0111 ,     -84.2002
2007-07-25T13:59:51 ,       10.0118 ,     -84.1997
2007-07-25T13:59:52 ,       10.0127 ,     -84.1992
2007-07-25T13:59:53 ,       10.0132 ,     -84.1989
2007-07-25T13:59:54 ,       10.0139 ,     -84.1984
2007-07-25T13:59:55 ,       10.0147 ,     -84.1978
2007-07-25T13:59:56 ,       10.0154 ,     -84.1973
2007-07-25T13:59:57 ,       10.0163 ,     -84.1968
2007-07-25T13:59:58 ,       10.0170 ,     -84.1961
2007-07-25T13:59:59 ,       10.0178 ,     -84.1956
2007-07-25T14:00:00 ,       10.0187 ,     -84.1951
2007-07-25T14:00:01 ,       10.0194 ,     -84.1946
2007-07-25T14:00:02 ,       10.0202 ,     -84.1941
2007-07-25T14:00:03 ,       10.0211 ,     -84.1936
2007-07-25T14:00:04 ,       10.0219 ,     -84.1929
2007-07-25T14:00:05 ,       10.0226 ,     -84.1923
2007-07-25T14:00:06 ,       10.0235 ,     -84.1918
2007-07-25T14:00:07 ,       10.0243 ,     -84.1913
2007-07-25T14:00:08 ,       10.0250 ,     -84.1908
2007-07-25T14:00:09 ,       10.0259 ,     -84.1903
2007-07-25T14:00:10 ,       10.0267 ,     -84.1898
2007-07-25T14:00:11 ,       10.0274 ,     -84.1893
2007-07-25T14:00:12 ,       10.0283 ,     -84.1888
2007-07-25T14:00:13 ,       10.0290 ,     -84.1882
2007-07-25T14:00:14 ,       10.0298 ,     -84.1877
2007-07-25T14:00:15 ,       10.0307 ,     -84.1872
2007-07-25T14:00:16 ,       10.0314 ,     -84.1867
2007-07-25T14:00:17 ,       10.0322 ,     -84.1860
2007-07-25T14:00:18 ,       10.0329 ,     -84.1855
2007-07-25T14:00:19 ,       10.0338 ,     -84.1850
2007-07-25T14:00:20 ,       10.0346 ,     -84.1845
2007-07-25T14:00:21 ,       10.0353 ,     -84.1839
2007-07-25T14:00:22 ,       10.0362 ,     -84.1834
2007-07-25T14:00:23 ,       10.0369 ,     -84.1829
2007-07-25T14:00:24 ,       10.0377 ,     -84.1824
2007-07-25T14:00:25 ,       10.0386 ,     -84.1817
2007-07-25T14:00:26 ,       10.0393 ,     -84.1814
2007-07-25T14:00:27 ,       10.0400 ,     -84.1807
2007-07-25T14:00:28 ,       10.0408 ,     -84.1802
2007-07-25T14:00:29 ,       10.0415 ,     -84.1796
2007-07-25T14:00:30 ,       10.0424 ,     -84.1791
2007-07-25T14:00:31 ,       10.0430 ,     -84.1786
2007-07-25T14:00:32 ,       10.0439 ,     -84.1779
2007-07-25T14:00:33 ,       10.0446 ,     -84.1774
2007-07-25T14:00:34 ,       10.0455 ,     -84.1769
2007-07-25T14:00:35 ,       10.0463 ,     -84.1764
2007-07-25T14:00:36 ,       10.0470 ,     -84.1759
2007-07-25T14:00:37 ,       10.0479 ,     -84.1752
2007-07-25T14:00:38 ,       10.0487 ,     -84.1747
2007-07-25T14:00:39 ,       10.0494 ,     -84.1742
2007-07-25T14:00:40 ,       10.0503 ,     -84.1736
2007-07-25T14:00:41 ,       10.0511 ,     -84.1731
2007-07-25T14:00:42 ,       10.0518 ,     -84.1724
2007-07-25T14:00:43 ,       10.0527 ,     -84.1719
2007-07-25T14:00:44 ,       10.0535 ,     -84.1714
2007-07-25T14:00:45 ,       10.0544 ,     -84.1709
2007-07-25T14:00:46 ,       10.0551 ,     -84.1704
2007-07-25T14:00:47 ,       10.0559 ,     -84.1697
2007-07-25T14:00:48 ,       10.0568 ,     -84.1692
2007-07-25T14:00:49 ,       10.0576 ,     -84.1687
2007-07-25T14:00:50 ,       10.0585 ,     -84.1681
2007-07-25T14:00:51 ,       10.0592 ,     -84.1676
2007-07-25T14:00:52 ,       10.0600 ,     -84.1669
2007-07-25T14:00:53 ,       10.0609 ,     -84.1664
2007-07-25T14:00:54 ,       10.0618 ,     -84.1659
2007-07-25T14:00:55 ,       10.0626 ,     -84.1654
2007-07-25T14:00:56 ,       10.0635 ,     -84.1649
2007-07-25T14:00:57 ,       10.0642 ,     -84.1644
2007-07-25T14:00:58 ,       10.0650 ,     -84.1637
2007-07-25T14:00:59 ,       10.0660 ,     -84.1632
2007-07-25T14:01:00 ,       10.0669 ,     -84.1627
2007-07-25T14:01:01 ,       10.0676 ,     -84.1620
2007-07-25T14:01:02 ,       10.0684 ,     -84.1614
2007-07-25T14:01:03 ,       10.0693 ,     -84.1609
2007-07-25T14:01:04 ,       10.0702 ,     -84.1604
2007-07-25T14:01:05 ,       10.0710 ,     -84.1599
2007-07-25T14:01:06 ,       10.0719 ,     -84.1592
2007-07-25T14:01:07 ,       10.0728 ,     -84.1587
2007-07-25T14:01:08 ,       10.0736 ,     -84.1582
2007-07-25T14:01:09 ,       10.0745 ,     -84.1577
2007-07-25T14:01:10 ,       10.0753 ,     -84.1572
2007-07-25T14:01:11 ,       10.0762 ,     -84.1566
2007-07-25T14:01:12 ,       10.0770 ,     -84.1560
2007-07-25T14:01:13 ,       10.0779 ,     -84.1554
2007-07-25T14:01:14 ,       10.0787 ,     -84.1549
2007-07-25T14:01:15 ,       10.0796 ,     -84.1542
2007-07-25T14:01:16 ,       10.0803 ,     -84.1537
2007-07-25T14:01:17 ,       10.0812 ,     -84.1532
2007-07-25T14:01:18 ,       10.0820 ,     -84.1525
2007-07-25T14:01:19 ,       10.0829 ,     -84.1520
2007-07-25T14:01:20 ,       10.0837 ,     -84.1513
2007-07-25T14:01:21 ,       10.0844 ,     -84.1508
2007-07-25T14:01:22 ,       10.0853 ,     -84.1503
2007-07-25T14:01:23 ,       10.0860 ,     -84.1496
2007-07-25T14:01:24 ,       10.0868 ,     -84.1489
2007-07-25T14:01:25 ,       10.0877 ,     -84.1484
2007-07-25T14:01:26 ,       10.0885 ,     -84.1477
2007-07-25T14:01:27 ,       10.0892 ,     -84.1470
2007-07-25T14:01:28 ,       10.0901 ,     -84.1465
2007-07-25T14:01:29 ,       10.0909 ,     -84.1458
2007-07-25T14:01:30 ,       10.0916 ,     -84.1451
2007-07-25T14:01:31 ,       10.0925 ,     -84.1446
2007-07-25T14:01:32 ,       10.0933 ,     -84.1439
2007-07-25T14:01:33 ,       10.0942 ,     -84.1433
2007-07-25T14:01:34 ,       10.0949 ,     -84.1426
2007-07-25T14:01:35 ,       10.0957 ,     -84.1419
2007-07-25T14:01:36 ,       10.0966 ,     -84.1414
2007-07-25T14:01:37 ,       10.0973 ,     -84.1407
2007-07-25T14:01:38 ,       10.0981 ,     -84.1400
2007-07-25T14:01:39 ,       10.0988 ,     -84.1393
2007-07-25T14:01:40 ,       10.0997 ,     -84.1388
2007-07-25T14:01:41 ,       10.1004 ,     -84.1381
2007-07-25T14:01:42 ,       10.1012 ,     -84.1374
2007-07-25T14:01:43 ,       10.1021 ,     -84.1367
2007-07-25T14:01:44 ,       10.1028 ,     -84.1362
2007-07-25T14:01:45 ,       10.1037 ,     -84.1355
2007-07-25T14:01:46 ,       10.1043 ,     -84.1348
2007-07-25T14:01:47 ,       10.1052 ,     -84.1342
2007-07-25T14:01:48 ,       10.1060 ,     -84.1335
2007-07-25T14:01:49 ,       10.1067 ,     -84.1330
2007-07-25T14:01:50 ,       10.1076 ,     -84.1323
2007-07-25T14:01:51 ,       10.1083 ,     -84.1316
2007-07-25T14:01:52 ,       10.1091 ,     -84.1309
2007-07-25T14:01:53 ,       10.1098 ,     -84.1302
2007-07-25T14:01:54 ,       10.1105 ,     -84.1297
2007-07-25T14:01:55 ,       10.1114 ,     -84.1290
2007-07-25T14:01:56 ,       10.1122 ,     -84.1283
2007-07-25T14:01:57 ,       10.1129 ,     -84.1276
2007-07-25T14:01:58 ,       10.1138 ,     -84.1271
2007-07-25T14:01:59 ,       10.1145 ,     -84.1264
2007-07-25T14:02:00 ,       10.1153 ,     -84.1257
2007-07-25T14:02:01 ,       10.1160 ,     -84.1251
2007-07-25T14:02:02 ,       10.1169 ,     -84.1244
2007-07-25T14:02:03 ,       10.1175 ,     -84.1237
2007-07-25T14:02:04 ,       10.1184 ,     -84.1230
2007-07-25T14:02:05 ,       10.1193 ,     -84.1223
2007-07-25T14:02:06 ,       10.1201 ,     -84.1216
2007-07-25T14:02:07 ,       10.1208 ,     -84.1211
2007-07-25T14:02:08 ,       10.1217 ,     -84.1204
2007-07-25T14:02:09 ,       10.1224 ,     -84.1197
2007-07-25T14:02:10 ,       10.1232 ,     -84.1191
2007-07-25T14:02:11 ,       10.1241 ,     -84.1184
2007-07-25T14:02:12 ,       10.1248 ,     -84.1177
2007-07-25T14:02:13 ,       10.1256 ,     -84.1170
2007-07-25T14:02:14 ,       10.1263 ,     -84.1165
2007-07-25T14:02:15 ,       10.1272 ,     -84.1158
2007-07-25T14:02:16 ,       10.1278 ,     -84.1151
2007-07-25T14:02:17 ,       10.1285 ,     -84.1146
2007-07-25T14:02:18 ,       10.1294 ,     -84.1139
2007-07-25T14:02:19 ,       10.1302 ,     -84.1132
2007-07-25T14:02:20 ,       10.1309 ,     -84.1125
2007-07-25T14:02:21 ,       10.1318 ,     -84.1118
2007-07-25T14:02:22 ,       10.1327 ,     -84.1112
2007-07-25T14:02:23 ,       10.1333 ,     -84.1105
2007-07-25T14:02:24 ,       10.1342 ,     -84.1098
2007-07-25T14:02:25 ,       10.1351 ,     -84.1091
2007-07-25T14:02:26 ,       10.1357 ,     -84.1084
2007-07-25T14:02:27 ,       10.1366 ,     -84.1077
2007-07-25T14:02:28 ,       10.1375 ,     -84.1070
2007-07-25T14:02:29 ,       10.1383 ,     -84.1063
2007-07-25T14:02:30 ,       10.1390 ,     -84.1057
2007-07-25T14:02:31 ,       10.1399 ,     -84.1050
2007-07-25T14:02:32 ,       10.1407 ,     -84.1043
2007-07-25T14:02:33 ,       10.1416 ,     -84.1036
2007-07-25T14:02:34 ,       10.1424 ,     -84.1027
2007-07-25T14:02:35 ,       10.1431 ,     -84.1021
2007-07-25T14:02:36 ,       10.1440 ,     -84.1014
2007-07-25T14:02:37 ,       10.1448 ,     -84.1007
2007-07-25T14:02:38 ,       10.1457 ,     -84.1000
2007-07-25T14:02:39 ,       10.1466 ,     -84.0991
2007-07-25T14:02:40 ,       10.1474 ,     -84.0985
2007-07-25T14:02:41 ,       10.1483 ,     -84.0978
2007-07-25T14:02:42 ,       10.1491 ,     -84.0971
2007-07-25T14:02:43 ,       10.1500 ,     -84.0964
2007-07-25T14:02:44 ,       10.1508 ,     -84.0957
2007-07-25T14:02:45 ,       10.1517 ,     -84.0950
2007-07-25T14:02:46 ,       10.1526 ,     -84.0942
2007-07-25T14:02:47 ,       10.1533 ,     -84.0935
2007-07-25T14:02:48 ,       10.1541 ,     -84.0928
2007-07-25T14:02:49 ,       10.1550 ,     -84.0921
2007-07-25T14:02:50 ,       10.1558 ,     -84.0914
2007-07-25T14:02:51 ,       10.1567 ,     -84.0907
2007-07-25T14:02:52 ,       10.1575 ,     -84.0899
2007-07-25T14:02:53 ,       10.1584 ,     -84.0892
2007-07-25T14:02:54 ,       10.1593 ,     -84.0885
2007-07-25T14:02:55 ,       10.1601 ,     -84.0878
2007-07-25T14:02:56 ,       10.1610 ,     -84.0869
2007-07-25T14:02:57 ,       10.1618 ,     -84.0863
2007-07-25T14:02:58 ,       10.1627 ,     -84.0856
2007-07-25T14:02:59 ,       10.1636 ,     -84.0849
2007-07-25T14:03:00 ,       10.1644 ,     -84.0842
2007-07-25T14:03:01 ,       10.1653 ,     -84.0835
2007-07-25T14:03:02 ,       10.1661 ,     -84.0827
2007-07-25T14:03:03 ,       10.1670 ,     -84.0820
2007-07-25T14:03:04 ,       10.1678 ,     -84.0813
2007-07-25T14:03:05 ,       10.1687 ,     -84.0806
2007-07-25T14:03:06 ,       10.1696 ,     -84.0797
2007-07-25T14:03:07 ,       10.1704 ,     -84.0791
2007-07-25T14:03:08 ,       10.1713 ,     -84.0784
2007-07-25T14:03:09 ,       10.1721 ,     -84.0775
2007-07-25T14:03:10 ,       10.1732 ,     -84.0768
2007-07-25T14:03:11 ,       10.1740 ,     -84.0761
2007-07-25T14:03:12 ,       10.1749 ,     -84.0753
2007-07-25T14:03:13 ,       10.1757 ,     -84.0746
2007-07-25T14:03:14 ,       10.1766 ,     -84.0739
2007-07-25T14:03:15 ,       10.1775 ,     -84.0731
2007-07-25T14:03:16 ,       10.1783 ,     -84.0724
2007-07-25T14:03:17 ,       10.1792 ,     -84.0717
2007-07-25T14:03:18 ,       10.1800 ,     -84.0710
2007-07-25T14:03:19 ,       10.1809 ,     -84.0703
2007-07-25T14:03:20 ,       10.1817 ,     -84.0694
2007-07-25T14:03:21 ,       10.1826 ,     -84.0688
2007-07-25T14:03:22 ,       10.1835 ,     -84.0682
2007-07-25T14:03:23 ,       10.1843 ,     -84.0674
2007-07-25T14:03:24 ,       10.1852 ,     -84.0667
2007-07-25T14:03:25 ,       10.1860 ,     -84.0660
2007-07-25T14:03:26 ,       10.1869 ,     -84.0653
2007-07-25T14:03:27 ,       10.1878 ,     -84.0645
2007-07-25T14:03:28 ,       10.1886 ,     -84.0638
2007-07-25T14:03:29 ,       10.1895 ,     -84.0631
2007-07-25T14:03:30 ,       10.1903 ,     -84.0624
2007-07-25T14:03:31 ,       10.1912 ,     -84.0615
2007-07-25T14:03:32 ,       10.1920 ,     -84.0609
2007-07-25T14:03:33 ,       10.1929 ,     -84.0602
2007-07-25T14:03:34 ,       10.1938 ,     -84.0595
2007-07-25T14:03:35 ,       10.1946 ,     -84.0586
2007-07-25T14:03:36 ,       10.1955 ,     -84.0579
2007-07-25T14:03:37 ,       10.1963 ,     -84.0573
2007-07-25T14:03:38 ,       10.1972 ,     -84.0566
2007-07-25T14:03:39 ,       10.1981 ,     -84.0557
2007-07-25T14:03:40 ,       10.1989 ,     -84.0550
2007-07-25T14:03:41 ,       10.1998 ,     -84.0543
2007-07-25T14:03:42 ,       10.2006 ,     -84.0535
2007-07-25T14:03:43 ,       10.2015 ,     -84.0528
2007-07-25T14:03:44 ,       10.2025 ,     -84.0519
2007-07-25T14:03:45 ,       10.2034 ,     -84.0512
2007-07-25T14:03:46 ,       10.2042 ,     -84.0506
2007-07-25T14:03:47 ,       10.2051 ,     -84.0499
2007-07-25T14:03:48 ,       10.2060 ,     -84.0490
2007-07-25T14:03:49 ,       10.2068 ,     -84.0483
2007-07-25T14:03:50 ,       10.2077 ,     -84.0476
2007-07-25T14:03:51 ,       10.2087 ,     -84.0468
2007-07-25T14:03:52 ,       10.2096 ,     -84.0461
2007-07-25T14:03:53 ,       10.2104 ,     -84.0454
2007-07-25T14:03:54 ,       10.2113 ,     -84.0446
2007-07-25T14:03:55 ,       10.2121 ,     -84.0439
2007-07-25T14:03:56 ,       10.2130 ,     -84.0432
2007-07-25T14:03:57 ,       10.2139 ,     -84.0425
2007-07-25T14:03:58 ,       10.2147 ,     -84.0416
2007-07-25T14:03:59 ,       10.2156 ,     -84.0409
2007-07-25T14:04:00 ,       10.2164 ,     -84.0403
2007-07-25T14:04:01 ,       10.2173 ,     -84.0394
2007-07-25T14:04:02 ,       10.2181 ,     -84.0387
2007-07-25T14:04:03 ,       10.2190 ,     -84.0380
2007-07-25T14:04:04 ,       10.2199 ,     -84.0372
2007-07-25T14:04:05 ,       10.2209 ,     -84.0365
2007-07-25T14:04:06 ,       10.2217 ,     -84.0358
2007-07-25T14:04:07 ,       10.2226 ,     -84.0351
2007-07-25T14:04:08 ,       10.2235 ,     -84.0343
2007-07-25T14:04:09 ,       10.2243 ,     -84.0336
2007-07-25T14:04:10 ,       10.2252 ,     -84.0329
2007-07-25T14:04:11 ,       10.2260 ,     -84.0320
2007-07-25T14:04:12 ,       10.2269 ,     -84.0313
2007-07-25T14:04:13 ,       10.2278 ,     -84.0306
2007-07-25T14:04:14 ,       10.2286 ,     -84.0300
2007-07-25T14:04:15 ,       10.2295 ,     -84.0291
2007-07-25T14:04:16 ,       10.2303 ,     -84.0284
2007-07-25T14:04:17 ,       10.2312 ,     -84.0277
2007-07-25T14:04:18 ,       10.2320 ,     -84.0269
2007-07-25T14:04:19 ,       10.2331 ,     -84.0262
2007-07-25T14:04:20 ,       10.2339 ,     -84.0255
2007-07-25T14:04:21 ,       10.2348 ,     -84.0246
2007-07-25T14:04:22 ,       10.2357 ,     -84.0240
2007-07-25T14:04:23 ,       10.2365 ,     -84.0233
2007-07-25T14:04:24 ,       10.2374 ,     -84.0226
2007-07-25T14:04:25 ,       10.2382 ,     -84.0217
2007-07-25T14:04:26 ,       10.2391 ,     -84.0210
2007-07-25T14:04:27 ,       10.2399 ,     -84.0203
2007-07-25T14:04:28 ,       10.2408 ,     -84.0197
2007-07-25T14:04:29 ,       10.2417 ,     -84.0190
2007-07-25T14:04:30 ,       10.2425 ,     -84.0181
2007-07-25T14:04:31 ,       10.2434 ,     -84.0174
2007-07-25T14:04:32 ,       10.2442 ,     -84.0167
2007-07-25T14:04:33 ,       10.2451 ,     -84.0159